Погода в Джексонвилл Бич

США     30°17′02″N   81°23′46″W
темп.,
°C
ветер,
м/с
пор.,
м/с
влажн.,
%
обл.,
%
осадки,
мм/ч
давл.,
гПа
погр.,
м
18 сентября, сб
сб1823:00+26ююв118594 0.4 101890
02:00+25зсз118997 1.0 101729
05:00+24сз1196100 0.3 101737
08:00+25св129292 0.4 101789
11:00+29всв2364100 0.0 10181093
14:00+30всв4360100 0.4 10171290
17:00+29в4462100 0.2 10151134
20:00+27всв2474100 0.3 1016525
19 сентября, вс
вс1923:00+26вюв2485100 2.6 1018268
02:00+25в2489100 3.6 1016151
05:00+25юв1190100 0.3 101615
08:00+25св1390100 1.8 1017118
11:00+28всв357182 2.3 1018792
14:00+31в4558100 2.9 10161398
17:00+29в4465100 0.1 10151062
20:00+26в2582100 0.8 1016398
20 сентября, пн
пн2023:00+25юв2590100 3.6 1017214
02:00+24ю129095 3.9 1016109
05:00+24ссз008992 0.3 101624
08:00+24зюз118843 0.7 101649
11:00+30ююв125768 0.1 1018953
14:00+30вюв436089 0.9 10161195
17:00+29вюв4467100 1.9 1016892
20:00+26юв3682100 4.5 1017433
21 сентября, вт
вт2123:00+24ююв2790100 2.4 1018324
02:00+24ю2694100 2.6 1017300
05:00+23ю1494100 0.9 1017163
08:00+24ю1292100 1.1 1017116
11:00+26юв1278100 0.8 1018350
14:00+30юв3360100 1.6 10161230
17:00+29юв3368100 2.8 1015870
20:00+26ююв3680100 3.9 1015393
22 сентября, ср
ср2223:00+25ю2787100 1.3 1015283
02:00+24ююз279092 1.3 1014297
05:00+23юз25938 0.0 1013194
08:00+24з24916 0.0 1014210
11:00+30зсз23596 0.0 10131025
14:00+34зсз244062 0.0 10112325
17:00+30св135998 0.6 1010501
20:00+26всв017994 3.4 101170